{"data":{"norad_id":63883,"intl_designator":"2025-094V","name":"STARLINK-33968","alt_names":[],"object_type":"PAYLOAD","status":"ACTIVE","operator":null,"country":"US","launch_date":"2025-05-10","launch_site_code":"AFWTR","launch_vehicle":null,"mission":null,"orbit_class":"UNKNOWN","rcs_meters":null,"size_class":null,"mass_kg":null,"dimensions":null,"purposes":["comms"],"wikipedia_slug":null,"has_3d_model":false,"image_url":null,"decayed_at":null,"tle_current":{"epoch":"2026-09-20T16:00:01.999584Z","epoch_age_seconds":132604,"freshness":"FRESH","line1":"1 63883U 25094V   26263.66668981 -.00043109  00000+0 -14642-2 0  9994","line2":"2 63883  69.9998 100.5617 0003285 266.5164 188.7460 15.30444290  5784","mean_motion":15.3044429,"eccentricity":0.0003285,"inclination_deg":69.9998,"raan_deg":100.5617,"arg_perigee_deg":266.5164,"mean_anomaly_deg":188.746,"bstar":-0.0014642,"rev_number":578,"period_min":94.090324581498,"perigee_km":472.23467396111,"apogee_km":476.73684711478,"semimajor_km":6852.6227605379,"source":"CELESTRAK","updated_at":"2026-09-21T09:00:35.141000Z"}}}